Location: Nag� el Ma?a??a
(24.0667°N, 32.8833°E)
Time: 23:12:35
(UTC+00:00)

SJ 16-02 - Pass Details

Date: 25 January 2022
Orbit: 605 x 615 km, 75.0° (Epoch: 17 May)

Event Time Altitude Azimuth Distance (km) Brightness Sun altitude
Rises 16:53:12 0° 172° (S) 2,846 4.8 -19.1°
Reaches altitude 10° 16:55:37 10° 162° (SSE) 1,947 3.8 -19.6°
Enters shadow 16:57:31 22° 143° (SE) 1,347 2.8 -20.1°
